WST718 MYNN-MYGF

Flight info

Callsign WST718
Flight time 0h 45m
Altitude 16000
Route PEACH BR65V ZFP
Aircraft E145/M-SDFGIRW/S

Departure

Time 2026-04-23 22:57
Airport Lynden Pindling International Airport (MYNN)

Arrival

Time 2026-04-23 23:42
Airport Grand Bahama International Airport (MYGF)
Time Latitude Longitude Altitude Speed Heading
2026-04-23 22:39 25.04773 -77.46566 23 ft 0 kts 176°
2026-04-23 22:46 25.04771 -77.46566 23 ft 1 kts 177°
2026-04-23 22:46 25.04765 -77.46573 23 ft 1 kts 262°
2026-04-23 22:47 25.04777 -77.46576 23 ft 3 kts 10°
2026-04-23 22:47 25.04797 -77.46587 23 ft 5 kts 318°
2026-04-23 22:47 25.04808 -77.46634 23 ft 10 kts 238°
2026-04-23 22:47 25.04750 -77.46693 23 ft 16 kts 223°
2026-04-23 22:48 25.04709 -77.46765 23 ft 12 kts 279°
2026-04-23 22:48 25.04755 -77.46831 23 ft 14 kts 312°
2026-04-23 22:48 25.04812 -77.46899 24 ft 14 kts 314°
2026-04-23 22:48 25.04877 -77.46969 25 ft 15 kts 316°
2026-04-23 22:49 25.04947 -77.47042 26 ft 16 kts 314°
2026-04-23 22:49 25.05019 -77.47126 26 ft 17 kts 314°
2026-04-23 22:49 25.05098 -77.47217 25 ft 19 kts 314°
2026-04-23 22:49 25.05187 -77.47315 23 ft 21 kts 316°
2026-04-23 22:50 25.05221 -77.47399 22 ft 12 kts 268°
2026-04-23 22:50 25.05218 -77.47424 22 ft 0 kts 258°
2026-04-23 22:54 25.05217 -77.47431 23 ft 1 kts 258°
2026-04-23 22:54 25.05211 -77.47458 23 ft 7 kts 254°
2026-04-23 22:54 25.05180 -77.47528 23 ft 15 kts 215°
2026-04-23 22:55 25.05107 -77.47488 23 ft 15 kts 135°
2026-04-23 22:55 25.05096 -77.47477 23 ft 0 kts 135°
2026-04-23 22:55 25.05049 -77.47423 23 ft 37 kts 134°
2026-04-23 22:56 25.04772 -77.47115 26 ft 95 kts 134°
2026-04-23 22:56 25.04277 -77.46563 31 ft 138 kts 135°
2026-04-23 22:56 25.03666 -77.45892 239 ft 153 kts 136°
2026-04-23 22:56 25.02996 -77.45118 613 ft 166 kts 124°
2026-04-23 22:57 25.02623 -77.44161 1268 ft 161 kts 97°
2026-04-23 22:57 25.02804 -77.43150 1862 ft 161 kts 57°
2026-04-23 22:57 25.03611 -77.42524 2447 ft 168 kts 14°
2026-04-23 22:57 25.04600 -77.42656 3054 ft 174 kts 335°
2026-04-23 22:58 25.05370 -77.43486 3523 ft 187 kts 298°
2026-04-23 22:58 25.05817 -77.44572 3964 ft 195 kts 296°
2026-04-23 22:58 25.06273 -77.45692 4375 ft 204 kts 296°
2026-04-23 22:58 25.06801 -77.46986 4827 ft 215 kts 295°
2026-04-23 22:59 25.07425 -77.48225 5261 ft 225 kts 310°
2026-04-23 22:59 25.08355 -77.49266 5700 ft 234 kts 320°
2026-04-23 22:59 25.09410 -77.50221 6113 ft 245 kts 323°
2026-04-23 22:59 25.10582 -77.51200 6543 ft 256 kts 324°
2026-04-23 23:00 25.11794 -77.52187 6975 ft 266 kts 324°
2026-04-23 23:00 25.13063 -77.53209 7437 ft 274 kts 324°
2026-04-23 23:00 25.14348 -77.54242 7948 ft 280 kts 323°
2026-04-23 23:00 25.15639 -77.55280 8446 ft 285 kts 323°
2026-04-23 23:01 25.16961 -77.56342 8947 ft 290 kts 323°
2026-04-23 23:01 25.18346 -77.57455 9475 ft 294 kts 323°
2026-04-23 23:01 25.19729 -77.58568 9993 ft 298 kts 322°
2026-04-23 23:01 25.21141 -77.59703 10506 ft 301 kts 322°
2026-04-23 23:02 25.22578 -77.60859 11024 ft 305 kts 322°
2026-04-23 23:02 25.24020 -77.62019 11529 ft 307 kts 322°
2026-04-23 23:02 25.25467 -77.63184 12054 ft 310 kts 322°
2026-04-23 23:02 25.26930 -77.64362 12576 ft 311 kts 321°
2026-04-23 23:03 25.28401 -77.65547 13093 ft 313 kts 321°
2026-04-23 23:03 25.29859 -77.66722 13602 ft 314 kts 321°
2026-04-23 23:03 25.31331 -77.67908 14110 ft 315 kts 321°
2026-04-23 23:03 25.32845 -77.69129 14626 ft 316 kts 321°
2026-04-23 23:04 25.34346 -77.70339 15137 ft 316 kts 321°
2026-04-23 23:04 25.35827 -77.71533 15644 ft 316 kts 321°
2026-04-23 23:04 25.37312 -77.72732 15942 ft 324 kts 321°
2026-04-23 23:04 25.38916 -77.74027 15975 ft 339 kts 321°
2026-04-23 23:05 25.40608 -77.75394 15982 ft 355 kts 321°
2026-04-23 23:05 25.42342 -77.76794 15981 ft 369 kts 321°
2026-04-23 23:05 25.44219 -77.78146 15977 ft 383 kts 327°
2026-04-23 23:05 25.46084 -77.79668 15980 ft 389 kts 318°
2026-04-23 23:06 25.48008 -77.81333 15976 ft 393 kts 320°
2026-04-23 23:06 25.49949 -77.82945 15976 ft 393 kts 321°
2026-04-23 23:06 25.51900 -77.84544 15974 ft 392 kts 321°
2026-04-23 23:06 25.53855 -77.86139 15971 ft 389 kts 321°
2026-04-23 23:07 25.55772 -77.87701 15971 ft 384 kts 321°
2026-04-23 23:07 25.57577 -77.89170 15966 ft 381 kts 321°
2026-04-23 23:07 25.59407 -77.90661 15964 ft 378 kts 322°
2026-04-23 23:07 25.61219 -77.92137 15964 ft 376 kts 321°
2026-04-23 23:08 25.63104 -77.93674 15961 ft 373 kts 321°
2026-04-23 23:08 25.65043 -77.95255 15958 ft 371 kts 321°
2026-04-23 23:08 25.66937 -77.96800 15960 ft 371 kts 321°
2026-04-23 23:08 25.68894 -77.98396 15964 ft 371 kts 321°
2026-04-23 23:09 25.70835 -77.99981 15965 ft 371 kts 321°
2026-04-23 23:09 25.72745 -78.01541 15966 ft 371 kts 322°
2026-04-23 23:09 25.74698 -78.03136 15968 ft 372 kts 321°
2026-04-23 23:09 25.76658 -78.04739 15968 ft 372 kts 321°
2026-04-23 23:10 25.78557 -78.06292 15966 ft 372 kts 322°
2026-04-23 23:10 25.80461 -78.07849 15968 ft 372 kts 321°
2026-04-23 23:10 25.82362 -78.09405 15965 ft 373 kts 322°
2026-04-23 23:10 25.84288 -78.10982 15966 ft 373 kts 321°
2026-04-23 23:11 25.86136 -78.12496 15967 ft 373 kts 322°
2026-04-23 23:11 25.88040 -78.14056 15966 ft 373 kts 322°
2026-04-23 23:11 25.89963 -78.15631 15968 ft 373 kts 321°
2026-04-23 23:11 25.91783 -78.17124 15855 ft 377 kts 322°
2026-04-23 23:12 25.93616 -78.18630 15434 ft 385 kts 322°
2026-04-23 23:12 25.95422 -78.20110 15015 ft 370 kts 322°
2026-04-23 23:12 25.97205 -78.21574 14580 ft 357 kts 322°
2026-04-23 23:12 25.98919 -78.22980 14150 ft 346 kts 322°
2026-04-23 23:13 26.00576 -78.24342 13724 ft 337 kts 322°
2026-04-23 23:13 26.02200 -78.25677 13295 ft 328 kts 322°
2026-04-23 23:13 26.03791 -78.26985 12863 ft 321 kts 322°
2026-04-23 23:13 26.05302 -78.28228 12446 ft 315 kts 322°
2026-04-23 23:14 26.06828 -78.29484 12017 ft 310 kts 322°
2026-04-23 23:14 26.08314 -78.30707 11603 ft 305 kts 322°
2026-04-23 23:14 26.09765 -78.31902 11232 ft 300 kts 322°
2026-04-23 23:14 26.11192 -78.33076 10901 ft 294 kts 322°
2026-04-23 23:15 26.12564 -78.34282 10590 ft 287 kts 313°
2026-04-23 23:15 26.13583 -78.35769 10336 ft 279 kts 304°
2026-04-23 23:15 26.14521 -78.37270 10090 ft 272 kts 304°
2026-04-23 23:15 26.15439 -78.38742 9867 ft 266 kts 304°
2026-04-23 23:16 26.16336 -78.40182 9652 ft 260 kts 304°
2026-04-23 23:16 26.17194 -78.41561 9441 ft 254 kts 304°
2026-04-23 23:16 26.18046 -78.42932 9228 ft 250 kts 304°
2026-04-23 23:16 26.18877 -78.44267 9020 ft 245 kts 304°
2026-04-23 23:17 26.19697 -78.45586 8808 ft 242 kts 305°
2026-04-23 23:17 26.20508 -78.46890 8598 ft 238 kts 305°
2026-04-23 23:17 26.21298 -78.48161 8390 ft 235 kts 305°
2026-04-23 23:17 26.22101 -78.49453 8176 ft 233 kts 305°
2026-04-23 23:18 26.22898 -78.50736 7962 ft 230 kts 305°
2026-04-23 23:18 26.23658 -78.51959 7755 ft 228 kts 305°
2026-04-23 23:18 26.24425 -78.53194 7546 ft 227 kts 306°
2026-04-23 23:18 26.25185 -78.54418 7338 ft 225 kts 306°
2026-04-23 23:19 26.25942 -78.55637 7131 ft 223 kts 306°
2026-04-23 23:19 26.26697 -78.56855 6921 ft 222 kts 306°
2026-04-23 23:19 26.27443 -78.58057 6714 ft 221 kts 306°
2026-04-23 23:19 26.28177 -78.59241 6509 ft 220 kts 306°
2026-04-23 23:20 26.28910 -78.60423 6304 ft 219 kts 306°
2026-04-23 23:20 26.29650 -78.61617 6093 ft 218 kts 306°
2026-04-23 23:20 26.30390 -78.62811 5885 ft 218 kts 306°
2026-04-23 23:20 26.31114 -78.63980 5680 ft 217 kts 307°
2026-04-23 23:21 26.31838 -78.65148 5476 ft 217 kts 306°
2026-04-23 23:21 26.32587 -78.66358 5261 ft 217 kts 306°
2026-04-23 23:21 26.33343 -78.67579 5043 ft 217 kts 306°
2026-04-23 23:21 26.34110 -78.68819 4825 ft 217 kts 306°
2026-04-23 23:22 26.34869 -78.70045 4604 ft 217 kts 306°
2026-04-23 23:22 26.35637 -78.71287 4376 ft 217 kts 306°
2026-04-23 23:22 26.36403 -78.72526 4153 ft 216 kts 306°
2026-04-23 23:22 26.37157 -78.73747 3938 ft 216 kts 306°
2026-04-23 23:23 26.37895 -78.74940 3728 ft 217 kts 306°
2026-04-23 23:23 26.38662 -78.76182 3511 ft 217 kts 306°
2026-04-23 23:23 26.39392 -78.77363 3303 ft 218 kts 306°
2026-04-23 23:23 26.40136 -78.78568 3093 ft 218 kts 306°
2026-04-23 23:24 26.40887 -78.79784 2880 ft 219 kts 306°
2026-04-23 23:24 26.41617 -78.80967 2674 ft 219 kts 306°
2026-04-23 23:24 26.42361 -78.82173 2466 ft 220 kts 306°
2026-04-23 23:24 26.43113 -78.83392 2256 ft 220 kts 306°
2026-04-23 23:25 26.43870 -78.84619 2043 ft 220 kts 306°
2026-04-23 23:25 26.44634 -78.85841 1892 ft 216 kts 311°
2026-04-23 23:25 26.45656 -78.86668 1886 ft 199 kts 348°
2026-04-23 23:25 26.46796 -78.86653 1888 ft 175 kts 28°
2026-04-23 23:26 26.47522 -78.85932 1916 ft 149 kts 67°
2026-04-23 23:26 26.47946 -78.85075 1840 ft 142 kts 56°
2026-04-23 23:26 26.48523 -78.84248 1645 ft 156 kts 55°
2026-04-23 23:26 26.49113 -78.83405 1595 ft 160 kts 55°
2026-04-23 23:27 26.49701 -78.82495 1589 ft 163 kts 59°
2026-04-23 23:27 26.50236 -78.81568 1568 ft 155 kts 61°
2026-04-23 23:27 26.50721 -78.80682 1574 ft 147 kts 61°
2026-04-23 23:27 26.51187 -78.79849 1585 ft 139 kts 61°
2026-04-23 23:28 26.51632 -78.79034 1585 ft 139 kts 64°
2026-04-23 23:28 26.51994 -78.78170 1551 ft 140 kts 72°
2026-04-23 23:28 26.52287 -78.77272 1515 ft 144 kts 72°
2026-04-23 23:28 26.52608 -78.76374 1264 ft 149 kts 69°
2026-04-23 23:29 26.52974 -78.75485 1031 ft 147 kts 66°
2026-04-23 23:29 26.53354 -78.74643 770 ft 147 kts 65°
2026-04-23 23:29 26.53789 -78.73780 503 ft 147 kts 64°
2026-04-23 23:29 26.54195 -78.72950 432 ft 139 kts 67°
2026-04-23 23:30 26.54583 -78.72141 306 ft 137 kts 65°
2026-04-23 23:30 26.54981 -78.71343 108 ft 138 kts 66°
2026-04-23 23:30 26.55386 -78.70534 23 ft 125 kts 63°
2026-04-23 23:30 26.55758 -78.69797 49 ft 134 kts 66°
2026-04-23 23:31 26.56167 -78.68916 253 ft 157 kts 66°
2026-04-23 23:31 26.56620 -78.67872 630 ft 178 kts 66°
2026-04-23 23:31 26.57206 -78.66718 1137 ft 198 kts 60°
2026-04-23 23:31 26.58016 -78.65561 1552 ft 226 kts 41°
2026-04-23 23:32 26.59282 -78.64642 1618 ft 249 kts 33°
2026-04-23 23:32 26.60620 -78.63753 1591 ft 244 kts 33°
2026-04-23 23:32 26.61963 -78.62865 1589 ft 237 kts 33°
2026-04-23 23:32 26.63309 -78.61981 1588 ft 232 kts 33°
2026-04-23 23:33 26.64710 -78.61362 1583 ft 231 kts
2026-04-23 23:33 26.66246 -78.61707 1597 ft 232 kts 332°
2026-04-23 23:33 26.67333 -78.63005 1602 ft 232 kts 294°
2026-04-23 23:33 26.67552 -78.64552 1603 ft 227 kts 260°
2026-04-23 23:34 26.66960 -78.66003 1603 ft 218 kts 223°
2026-04-23 23:34 26.65821 -78.66978 1597 ft 213 kts 209°
2026-04-23 23:34 26.64669 -78.67820 1587 ft 212 kts 210°
2026-04-23 23:34 26.63584 -78.68610 1581 ft 212 kts 209°
2026-04-23 23:35 26.62456 -78.69441 1583 ft 211 kts 212°
2026-04-23 23:35 26.61439 -78.70533 1590 ft 212 kts 223°
2026-04-23 23:35 26.60486 -78.71661 1585 ft 211 kts 224°
2026-04-23 23:35 26.59610 -78.72717 1581 ft 211 kts 225°
2026-04-23 23:36 26.58759 -78.73794 1586 ft 210 kts 226°
2026-04-23 23:36 26.57905 -78.74901 1583 ft 210 kts 227°
2026-04-23 23:36 26.57073 -78.75981 1582 ft 209 kts 226°
2026-04-23 23:36 26.56380 -78.77161 1587 ft 209 kts 245°
2026-04-23 23:37 26.55894 -78.78516 1584 ft 209 kts 246°
2026-04-23 23:37 26.55411 -78.79813 1583 ft 208 kts 245°
2026-04-23 23:37 26.54882 -78.81101 1582 ft 208 kts 242°
2026-04-23 23:37 26.54307 -78.82371 1586 ft 205 kts 231°
2026-04-23 23:38 26.53420 -78.83156 1600 ft 186 kts 194°
2026-04-23 23:38 26.52403 -78.83187 1578 ft 161 kts 155°
2026-04-23 23:38 26.51720 -78.82574 1575 ft 138 kts 114°
2026-04-23 23:38 26.51602 -78.81731 1568 ft 133 kts 83°
2026-04-23 23:39 26.51656 -78.80839 1616 ft 124 kts 88°
2026-04-23 23:39 26.51631 -78.80019 1557 ft 120 kts 94°
2026-04-23 23:39 26.51583 -78.79211 1471 ft 121 kts 91°
2026-04-23 23:39 26.51601 -78.78666 1363 ft 128 kts 84°
2026-04-23 23:40 26.52245 -78.76783 1219 ft 132 kts 61°
2026-04-23 23:40 26.52683 -78.75993 1059 ft 138 kts 62°
2026-04-23 23:40 26.53110 -78.75227 928 ft 136 kts 63°
2026-04-23 23:41 26.53507 -78.74429 720 ft 137 kts 69°
2026-04-23 23:41 26.53871 -78.73608 527 ft 137 kts 69°
2026-04-23 23:41 26.54248 -78.72793 361 ft 138 kts 65°
2026-04-23 23:41 26.54649 -78.72004 242 ft 132 kts 66°
2026-04-23 23:42 26.55046 -78.71222 78 ft 133 kts 65°
2026-04-23 23:42 26.55434 -78.70442 22 ft 120 kts 64°
2026-04-23 23:42 26.55757 -78.69777 12 ft 92 kts 60°
2026-04-23 23:42 26.55883 -78.69514 12 ft 14 kts 85°
2026-04-23 23:43 26.55838 -78.69434 12 ft 15 kts 159°
2026-04-23 23:43 26.55779 -78.69453 12 ft 8 kts 221°
2026-04-23 23:43 26.55739 -78.69493 12 ft 11 kts 221°
2026-04-23 23:43 26.55668 -78.69562 12 ft 20 kts 219°
2026-04-23 23:44 26.55570 -78.69659 12 ft 22 kts 222°
2026-04-23 23:44 26.55462 -78.69763 12 ft 24 kts 220°
2026-04-23 23:44 26.55343 -78.69878 12 ft 25 kts 221°
2026-04-23 23:44 26.55229 -78.69990 12 ft 22 kts 221°
2026-04-23 23:45 26.55121 -78.70095 12 ft 24 kts 220°
2026-04-23 23:45 26.54999 -78.70208 12 ft 23 kts 220°
2026-04-23 23:45 26.54935 -78.70250 12 ft 7 kts 166°
2026-04-23 23:45 26.54921 -78.70203 12 ft 8 kts 91°
2026-04-23 23:46 26.54920 -78.70140 12 ft 10 kts 92°
2026-04-23 23:46 26.54917 -78.70064 12 ft 11 kts 91°
2026-04-23 23:46 26.54915 -78.69979 12 ft 13 kts 90°
2026-04-23 23:46 26.54914 -78.69883 12 ft 14 kts 90°
2026-04-23 23:47 26.54912 -78.69797 12 ft 7 kts 92°
2026-04-23 23:47 26.54900 -78.69755 12 ft 6 kts 154°
2026-04-23 23:47 26.54875 -78.69756 12 ft 0 kts 181°